IN3BXS Weather Reports


time (UTC)temp
F
wind
direction
speed
knots
gust
knots
rain 1hr
in
rain 24hr
in
rain mn
in
humidity
%
barometer
mb
20260504120201 65 236 0.0 9.6 0.00 0.00 0.00 20 1010.7
20260504043026 45 1 0.0 2.6 0.00 0.00 0.00 28 1015.7
20260504040026 45 1 0.0 2.6 0.00 0.00 0.00 28 1015.7
20260504033026 46 1 0.0 2.6 0.00 0.00 0.00 28 1015.5
20260504030026 46 1 0.0 1.7 0.00 0.00 0.00 28 1015.4
20260504023026 47 1 0.0 2.6 0.00 0.00 0.00 27 1015.2
20260504020026 49 1 0.0 2.6 0.00 0.00 0.00 26 1014.7
20260504013026 52 301 0.0 2.6 0.00 0.00 0.00 23 1014.0
20260504010026 52 51 0.0 0.0 0.00 0.00 0.00 23 1014.0
20260504003026 51 327 0.0 0.0 0.00 0.00 0.00 24 1014.0
20260504000026 52 0 0.0 2.6 0.00 0.00 0.00 23 1013.9
20260503233026 53 278 0.0 2.6 0.00 0.00 0.00 26 1014.9
20260503230026 53 313 0.0 3.5 0.00 0.00 0.00 26 1014.9
20260503223026 52 353 0.0 0.0 0.00 0.00 0.00 26 1015.0
20260503220026 52 353 0.0 2.6 0.00 0.00 0.00 26 1015.1
20260503213026 51 316 0.0 2.6 0.00 0.00 0.00 26 1015.2
20260503210026 52 282 0.0 4.3 0.00 0.00 0.00 26 1015.0
20260503203027 54 279 0.0 1.7 0.00 0.00 0.00 23 1014.7
20260503200026 56 268 0.0 5.2 0.00 0.00 0.00 22 1013.0
20260503193026 58 220 0.0 5.2 0.00 0.00 0.00 22 1012.6
20260503190058 58 200 0.0 7.0 0.00 0.00 0.00 22 1012.4
20260503190027 58 200 0.0 7.0 0.00 0.00 0.00 22 1012.4
20260503183026 59 291 0.0 5.2 0.00 0.00 0.00 22 1012.1
20260503180026 60 263 0.0 7.0 0.00 0.00 0.00 22 1011.9
20260503173026 62 268 0.0 7.0 0.00 0.00 0.00 21 1011.6